User: anonymous   Login
Location: Dodgeville
(40.9429°N, 91.1809°W)
Time: 20:40:44
(UTC+00:00)
Language:

Envisat - Orbit

View from above orbital plane
View from above orbital plane
View from above satellite
View from above satellite

Ground track
Ground track

The orbit data is extracted from the following two-line orbital elements,

1 27386U 02009A   20185.57607056 -.00000000  00000-0  13415-4 0  9998
2 27386  98.1354 191.7777 0001325  92.3344  16.5218 14.37985103960934
Epoch (UTC): 03 July 2020 13:49:32
Eccentricity: 0.0001325
inclination: 98.1354°
perigee height: 764 km
apogee height: 766 km
right ascension of ascending node: 191.7777°
argument of perigee: 92.3344°
revolutions per day: 14.37985103
mean anomaly at epoch: 16.5218°
orbit number at epoch: 96093

The dashed part of the orbit path shows where the satellite is in the earth's shadow,  

DLR